Flag for Poland Weather past 2 weeks in Sosnowiec, Poland

Now
28 °F

Light snow. Broken clouds.


Feels Like: 19 °F
Forecast: 18 / 24 °F
Wind: 10 mph from Northwest

Location: Katowice Airport

Current Time: Dec 26, 2014 at 2:00:24 PM

Latest Report: Dec 26, 2014 at 1:30 PM


Visibility: 4 mi

Pressure: 30.15 "Hg

Humidity: 93%

Dew point: 27 °F

Location of SosnowiecLocation

Historic Weather in Sosnowiec — Graph

°F

Sosnowiec temperature yesterday

Maximum temperature yesterday: 43 °F (at 1:00 AM)
Minimum temperature yesterday: 34 °F (at 8:30 AM)
Average temperature yesterday: 38 °F

Past Weeks' High & Low Weather Summary

 TemperatureHumidityPressure
High52 °F (Dec 19, 11:30 AM)100% (Dec 16, 8:30 AM)30.18 "Hg (Dec 16, 8:30 AM)
Low28 °F (Dec 26, 11:00 AM)46% (Dec 12, 8:00 PM)29.71 "Hg (Dec 12, 5:30 PM)
Average42 °F81%29.92 "Hg
* Reported Dec 11 1:00 PM — Dec 26 1:00 PM, Sosnowiec, Weather by CustomWeather, © 2014

Note: Actual official high and low records may vary slightly from our data, if they occured in-between our weather recording intervals... More about our weather records

Advertising

Sosnowiec weather history for previous 24 hours

 ConditionsComfort  
Time TempWeatherWind HumidityBarometerVisibility
1:00 PM
Dec 26
28 °FLight snow. Partly sunny.14 mph93%30.15 "Hg5 mi
12:30 PM28 °FLight snow. Broken clouds.14 mph93%30.15 "Hg5 mi
12:00 PM28 °FLight snow. Broken clouds.16 mph100%30.15 "Hg5 mi
11:30 AM28 °FLight snow. Broken clouds.15 mph100%30.15 "Hg4 mi
11:00 AM28 °FLight snow. Ice fog.14 mph100%30.12 "Hg1 mi
10:30 AM30 °FLight snow. Broken clouds.14 mph93%30.12 "Hg4 mi
10:00 AM30 °FLight snow. Broken clouds.15 mph93%30.12 "Hg4 mi
9:30 AM30 °FLight snow. Ice fog.14 mph100%30.09 "Hg2 mi
9:00 AM30 °FLight snow. Ice fog.15 mph100%30.09 "Hg1 mi
8:30 AM30 °FLight snow. Ice fog.13 mph100%30.07 "Hg1 mi
8:00 AM32 °FLight snow. Ice fog.9 mph100%30.04 "Hg1 mi
7:30 AM32 °FLight snow. Ice fog.10 mph100%30.04 "Hg2 mi
7:00 AM32 °FLight snow. Ice fog.10 mph100%30.01 "Hg1 mi
6:30 AM32 °FLight snow. Ice fog.12 mph100%30.01 "Hg1 mi
6:00 AM32 °FSnow flurries. Passing clouds.9 mph100%30.01 "Hg2 mi
5:30 AM34 °FSnow flurries. Partly cloudy.10 mph87%30.01 "Hg4 mi
5:00 AM36 °FSnow flurries. Partly cloudy.9 mph81%30.01 "Hg4 mi
4:30 AM36 °FSprinkles. Partly cloudy.10 mph81%30.01 "Hg5 mi
3:30 AM36 °FPassing clouds.8 mph81%30.01 "HgN/A
3:00 AM36 °FPassing clouds.10 mph81%30.01 "HgN/A
2:30 AM34 °FPassing clouds.8 mph87%30.01 "HgN/A
2:00 AM36 °FPassing clouds.12 mph81%30.01 "HgN/A
1:30 AM34 °FClear.10 mph87%30.01 "Hg10 mi
1:00 AM34 °FClear.13 mph87%30.01 "Hg10 mi
12:30 AM34 °FClear.12 mph87%30.01 "Hg10 mi
12:00 AM34 °FClear.12 mph87%30.01 "Hg10 mi
11:30 PM
Dec 25
34 °FClear.12 mph87%30.01 "Hg10 mi
11:00 PM34 °FPassing clouds.12 mph87%30.01 "HgN/A
10:30 PM34 °FSprinkles. Partly cloudy.12 mph93%30.01 "Hg5 mi
10:00 PM34 °FSprinkles. Partly cloudy.14 mph93%30.04 "Hg5 mi
9:30 PM36 °FSprinkles. Partly cloudy.15 mph87%30.01 "Hg2 mi
9:00 PM37 °FPassing clouds.13 mph75%30.01 "HgN/A
8:30 PM37 °FPassing clouds.14 mph75%30.01 "HgN/A
8:00 PM37 °FPassing clouds.13 mph70%30.01 "HgN/A
7:30 PM37 °FPassing clouds.10 mph70%30.01 "HgN/A
7:00 PM37 °FPassing clouds.10 mph70%30.01 "HgN/A
6:30 PM39 °FPassing clouds.17 mph65%30.01 "HgN/A
6:00 PM39 °FSprinkles. Partly cloudy.14 mph65%30.01 "HgN/A
5:30 PM39 °FSprinkles. Partly cloudy.14 mph65%30.01 "HgN/A
5:00 PM39 °FPassing clouds.14 mph65%30.01 "HgN/A
4:30 PM39 °FPassing clouds.14 mph65%30.01 "HgN/A
4:00 PM39 °FPassing clouds.13 mph65%30.01 "HgN/A
3:30 PM39 °FPartly sunny.17 mph65%30.01 "HgN/A
3:00 PM39 °FPartly sunny.15 mph70%30.01 "HgN/A
2:30 PM39 °FPartly sunny.13 mph70%30.01 "HgN/A
2:00 PM39 °FPartly sunny.14 mph70%30.01 "HgN/A
Weather by CustomWeather, © 2014

See weather overviewHow to use our weather pages